Year,Month,Day,Hour,Minute,Value (Times are PST for temperature in C)
2006,07,30,00,00,15.20
2006,07,30,00,01,15.20
2006,07,30,00,02,15.20
2006,07,30,00,03,15.20
2006,07,30,00,04,15.10
2006,07,30,00,05,15.10
2006,07,30,00,06,15.10
2006,07,30,00,07,15.00
2006,07,30,00,08,15.00
2006,07,30,00,09,15.00
2006,07,30,00,10,14.90
2006,07,30,00,11,14.90
2006,07,30,00,12,14.90
2006,07,30,00,13,14.90
2006,07,30,00,14,14.90
2006,07,30,00,15,14.90
2006,07,30,00,16,14.80
2006,07,30,00,17,14.80
2006,07,30,00,18,14.80
2006,07,30,00,19,14.80
2006,07,30,00,20,14.80
2006,07,30,00,21,14.80
2006,07,30,00,22,14.80
2006,07,30,00,23,14.80
2006,07,30,00,24,14.80
2006,07,30,00,25,14.80
2006,07,30,00,26,14.80
2006,07,30,00,27,14.80
2006,07,30,00,28,14.80
2006,07,30,00,29,14.80
2006,07,30,00,30,14.80
2006,07,30,00,31,14.80
2006,07,30,00,32,14.80
2006,07,30,00,33,14.80
2006,07,30,00,34,14.80
2006,07,30,00,35,14.80
2006,07,30,00,36,14.80
2006,07,30,00,37,14.80
2006,07,30,00,38,14.80
2006,07,30,00,39,14.80
2006,07,30,00,40,14.80
2006,07,30,00,41,14.80
2006,07,30,00,42,14.80
2006,07,30,00,43,14.80
2006,07,30,00,44,14.80
2006,07,30,00,45,14.80
2006,07,30,00,46,14.80
2006,07,30,00,47,14.80
2006,07,30,00,48,14.80
2006,07,30,00,49,14.80
2006,07,30,00,50,14.80
2006,07,30,00,51,14.80
2006,07,30,00,52,14.90
2006,07,30,00,53,14.90
2006,07,30,00,54,14.80
2006,07,30,00,55,14.80
2006,07,30,00,56,14.80
2006,07,30,00,57,14.80
2006,07,30,00,58,14.80
2006,07,30,00,59,14.80
2006,07,30,01,00,14.80
2006,07,30,01,01,14.80
2006,07,30,01,02,14.80
2006,07,30,01,03,14.80
2006,07,30,01,04,14.80
2006,07,30,01,05,14.80
2006,07,30,01,06,14.80
2006,07,30,01,07,14.80
2006,07,30,01,08,14.80
2006,07,30,01,09,14.80
2006,07,30,01,10,14.80
2006,07,30,01,11,14.80
2006,07,30,01,12,14.80
2006,07,30,01,13,14.80
2006,07,30,01,14,14.80
2006,07,30,01,15,14.80
2006,07,30,01,16,14.80
2006,07,30,01,17,14.80
2006,07,30,01,18,14.80
2006,07,30,01,19,14.80
2006,07,30,01,20,14.80
2006,07,30,01,21,14.80
2006,07,30,01,22,14.80
2006,07,30,01,23,14.80
2006,07,30,01,24,14.80
2006,07,30,01,25,14.80
2006,07,30,01,26,14.80
2006,07,30,01,27,14.80
2006,07,30,01,28,14.70
2006,07,30,01,29,14.70
2006,07,30,01,30,14.70
2006,07,30,01,31,14.70
2006,07,30,01,32,14.70
2006,07,30,01,33,14.70
2006,07,30,01,34,14.70
2006,07,30,01,35,14.70
2006,07,30,01,36,14.70
2006,07,30,01,37,14.70
2006,07,30,01,38,14.70
2006,07,30,01,39,14.70
2006,07,30,01,40,14.70
2006,07,30,01,41,14.70
2006,07,30,01,42,14.70
2006,07,30,01,43,14.70
2006,07,30,01,44,14.70
2006,07,30,01,45,14.80
2006,07,30,01,46,14.80
2006,07,30,01,47,14.70
2006,07,30,01,48,14.70
2006,07,30,01,49,14.70
2006,07,30,01,50,14.70
2006,07,30,01,51,14.70
2006,07,30,01,52,14.70
2006,07,30,01,53,14.70
2006,07,30,01,54,14.70
2006,07,30,01,55,14.70
2006,07,30,01,56,14.80
2006,07,30,01,57,14.80
2006,07,30,01,58,14.80
2006,07,30,01,59,14.80
2006,07,30,02,00,14.80
2006,07,30,02,01,14.80
2006,07,30,02,02,14.80
2006,07,30,02,03,14.80
2006,07,30,02,04,14.80
2006,07,30,02,05,14.80
2006,07,30,02,06,14.80
2006,07,30,02,07,14.80
2006,07,30,02,08,14.80
2006,07,30,02,09,14.80
2006,07,30,02,10,14.80
2006,07,30,02,11,14.80
2006,07,30,02,12,14.80
2006,07,30,02,13,14.80
2006,07,30,02,14,14.80
2006,07,30,02,15,14.80
2006,07,30,02,16,14.80
2006,07,30,02,17,14.80
2006,07,30,02,18,14.80
2006,07,30,02,19,14.80
2006,07,30,02,20,14.80
2006,07,30,02,21,14.80
2006,07,30,02,22,14.80
2006,07,30,02,23,14.80
2006,07,30,02,24,14.80
2006,07,30,02,25,14.80
2006,07,30,02,26,14.80
2006,07,30,02,27,14.80
2006,07,30,02,28,14.80
2006,07,30,02,29,14.80
2006,07,30,02,30,14.80
2006,07,30,02,31,14.80
2006,07,30,02,32,14.80
2006,07,30,02,33,14.80
2006,07,30,02,34,14.80
2006,07,30,02,35,14.80
2006,07,30,02,36,14.80
2006,07,30,02,37,14.80
2006,07,30,02,38,14.80
2006,07,30,02,39,14.80
2006,07,30,02,40,14.80
2006,07,30,02,41,14.80
2006,07,30,02,42,14.80
2006,07,30,02,43,14.80
2006,07,30,02,44,14.80
2006,07,30,02,45,14.80
2006,07,30,02,46,14.80
2006,07,30,02,47,14.80
2006,07,30,02,48,14.80
2006,07,30,02,49,14.80
2006,07,30,02,50,14.80
2006,07,30,02,51,14.80
2006,07,30,02,52,14.80
2006,07,30,02,53,14.80
2006,07,30,02,54,14.80
2006,07,30,02,55,14.80
2006,07,30,02,56,14.80
2006,07,30,02,57,14.80
2006,07,30,02,58,14.80
2006,07,30,02,59,14.80
2006,07,30,03,00,14.80
2006,07,30,03,01,14.80
2006,07,30,03,02,14.80
2006,07,30,03,03,14.80
2006,07,30,03,04,14.80
2006,07,30,03,05,14.80
2006,07,30,03,06,14.80
2006,07,30,03,07,14.80
2006,07,30,03,08,14.80
2006,07,30,03,09,14.80
2006,07,30,03,10,14.90
2006,07,30,03,11,14.90
2006,07,30,03,12,14.90
2006,07,30,03,13,14.90
2006,07,30,03,14,14.90
2006,07,30,03,15,14.90
2006,07,30,03,16,14.90
2006,07,30,03,17,14.90
2006,07,30,03,18,14.90
2006,07,30,03,19,14.90
2006,07,30,03,20,14.90
2006,07,30,03,21,14.80
2006,07,30,03,22,14.80
2006,07,30,03,23,14.80
2006,07,30,03,24,14.80
2006,07,30,03,25,14.80
2006,07,30,03,26,14.80
2006,07,30,03,27,14.80
2006,07,30,03,28,14.80
2006,07,30,03,29,14.80
2006,07,30,03,30,14.80
2006,07,30,03,31,14.80
2006,07,30,03,32,14.80
2006,07,30,03,33,14.80
2006,07,30,03,34,14.80
2006,07,30,03,35,14.80
2006,07,30,03,36,14.80
2006,07,30,03,37,14.80
2006,07,30,03,38,14.80
2006,07,30,03,39,14.80
2006,07,30,03,40,14.80
2006,07,30,03,41,14.80
2006,07,30,03,42,14.80
2006,07,30,03,43,14.80
2006,07,30,03,44,14.80
2006,07,30,03,45,14.80
2006,07,30,03,46,14.80
2006,07,30,03,47,14.80
2006,07,30,03,48,14.80
2006,07,30,03,49,14.80
2006,07,30,03,50,14.80
2006,07,30,03,51,14.80
2006,07,30,03,52,14.80
2006,07,30,03,53,14.80
2006,07,30,03,54,14.80
2006,07,30,03,55,14.80
2006,07,30,03,56,14.80
2006,07,30,03,57,14.80
2006,07,30,03,58,14.80
2006,07,30,03,59,14.80
2006,07,30,04,00,14.80
2006,07,30,04,01,14.80
2006,07,30,04,02,14.80
2006,07,30,04,03,14.80
2006,07,30,04,04,14.80
2006,07,30,04,05,14.80
2006,07,30,04,06,14.80
2006,07,30,04,07,14.80
2006,07,30,04,08,14.80
2006,07,30,04,09,14.80
2006,07,30,04,10,14.80
2006,07,30,04,11,14.80
2006,07,30,04,12,14.80
2006,07,30,04,13,14.70
2006,07,30,04,14,14.70
2006,07,30,04,15,14.70
2006,07,30,04,16,14.70
2006,07,30,04,17,14.70
2006,07,30,04,18,14.70
2006,07,30,04,19,14.70
2006,07,30,04,20,14.70
2006,07,30,04,21,14.70
2006,07,30,04,22,14.70
2006,07,30,04,23,14.70
2006,07,30,04,24,14.80
2006,07,30,04,25,14.70
2006,07,30,04,26,14.70
2006,07,30,04,27,14.70
2006,07,30,04,28,14.70
2006,07,30,04,29,14.70
2006,07,30,04,30,14.70
2006,07,30,04,31,14.70
2006,07,30,04,32,14.70
2006,07,30,04,33,14.70
2006,07,30,04,34,14.70
2006,07,30,04,35,14.70
2006,07,30,04,36,14.70
2006,07,30,04,37,14.70
2006,07,30,04,38,14.70
2006,07,30,04,39,14.70
2006,07,30,04,40,14.70
2006,07,30,04,41,14.70
2006,07,30,04,42,14.70
2006,07,30,04,43,14.70
2006,07,30,04,44,14.70
2006,07,30,04,45,14.70
2006,07,30,04,46,14.70
2006,07,30,04,47,14.70
2006,07,30,04,48,14.70
2006,07,30,04,49,14.70
2006,07,30,04,50,14.70
2006,07,30,04,51,14.70
2006,07,30,04,52,14.70
2006,07,30,04,53,14.70
2006,07,30,04,54,14.60
2006,07,30,04,55,14.60
2006,07,30,04,56,14.60
2006,07,30,04,57,14.60
2006,07,30,04,58,14.60
2006,07,30,04,59,14.60
2006,07,30,05,00,14.60
2006,07,30,05,01,14.60
2006,07,30,05,02,14.60
2006,07,30,05,03,14.60
2006,07,30,05,04,14.60
2006,07,30,05,05,14.60
2006,07,30,05,06,14.60
2006,07,30,05,07,14.60
2006,07,30,05,08,14.60
2006,07,30,05,09,14.60
2006,07,30,05,10,14.60
2006,07,30,05,11,14.60
2006,07,30,05,12,14.60
2006,07,30,05,13,14.50
2006,07,30,05,14,14.50
2006,07,30,05,15,14.50
2006,07,30,05,16,14.50
2006,07,30,05,17,14.50
2006,07,30,05,18,14.50
2006,07,30,05,19,14.50
2006,07,30,05,20,14.50
2006,07,30,05,21,14.50
2006,07,30,05,22,14.50
2006,07,30,05,23,14.50
2006,07,30,05,24,14.50
2006,07,30,05,25,14.40
2006,07,30,05,26,14.40
2006,07,30,05,27,14.40
2006,07,30,05,28,14.40
2006,07,30,05,29,14.40
2006,07,30,05,30,14.40
2006,07,30,05,31,14.40
2006,07,30,05,32,14.40
2006,07,30,05,33,14.40
2006,07,30,05,34,14.40
2006,07,30,05,35,14.40
2006,07,30,05,36,14.40
2006,07,30,05,37,14.40
2006,07,30,05,38,14.40
2006,07,30,05,39,14.40
2006,07,30,05,40,14.40
2006,07,30,05,41,14.40
2006,07,30,05,42,14.40
2006,07,30,05,43,14.40
2006,07,30,05,44,14.40
2006,07,30,05,45,14.40
2006,07,30,05,46,14.40
2006,07,30,05,47,14.40
2006,07,30,05,48,14.40
2006,07,30,05,49,14.40
2006,07,30,05,50,14.40
2006,07,30,05,51,14.40
2006,07,30,05,52,14.40
2006,07,30,05,53,14.30
2006,07,30,05,54,14.30
2006,07,30,05,55,14.30
2006,07,30,05,56,14.30
2006,07,30,05,57,14.20
2006,07,30,05,58,14.20
2006,07,30,05,59,14.20
2006,07,30,06,00,14.20
2006,07,30,06,01,14.20
2006,07,30,06,02,14.10
2006,07,30,06,03,14.10
2006,07,30,06,04,14.00
2006,07,30,06,05,14.00
2006,07,30,06,06,14.00
2006,07,30,06,07,13.90
2006,07,30,06,08,13.90
2006,07,30,06,09,13.90
2006,07,30,06,10,13.80
2006,07,30,06,11,13.80
2006,07,30,06,12,13.80
2006,07,30,06,13,13.80
2006,07,30,06,14,13.80
2006,07,30,06,15,13.80
2006,07,30,06,16,13.80
2006,07,30,06,17,13.80
2006,07,30,06,18,13.80
2006,07,30,06,19,13.80
2006,07,30,06,20,13.80
2006,07,30,06,21,13.80
2006,07,30,06,22,13.80
2006,07,30,06,23,13.80
2006,07,30,06,24,13.80
2006,07,30,06,25,13.80
2006,07,30,06,26,13.80
2006,07,30,06,27,13.80
2006,07,30,06,28,13.80
2006,07,30,06,29,13.80
2006,07,30,06,30,13.80
2006,07,30,06,31,13.80
2006,07,30,06,32,13.70
2006,07,30,06,33,13.70
2006,07,30,06,34,13.70
2006,07,30,06,35,13.70
2006,07,30,06,36,13.70
2006,07,30,06,37,13.70
2006,07,30,06,38,13.60
2006,07,30,06,39,13.60
2006,07,30,06,40,13.60
2006,07,30,06,41,13.60
2006,07,30,06,42,13.60
2006,07,30,06,43,13.60
2006,07,30,06,44,13.60
2006,07,30,06,45,13.50
2006,07,30,06,46,13.50
2006,07,30,06,47,13.50
2006,07,30,06,48,13.50
2006,07,30,06,49,13.50
2006,07,30,06,50,13.50
2006,07,30,06,51,13.50
2006,07,30,06,52,13.40
2006,07,30,06,53,13.40
2006,07,30,06,54,13.40
2006,07,30,06,55,13.40
2006,07,30,06,56,13.40
2006,07,30,06,57,13.40
2006,07,30,06,58,13.40
2006,07,30,06,59,13.30
2006,07,30,07,00,13.30
2006,07,30,07,01,13.30
2006,07,30,07,02,13.30
2006,07,30,07,03,13.30
2006,07,30,07,04,13.30
2006,07,30,07,05,13.20
2006,07,30,07,06,13.20
2006,07,30,07,07,13.10
2006,07,30,07,08,13.10
2006,07,30,07,09,13.00
2006,07,30,07,10,12.90
2006,07,30,07,11,12.90
2006,07,30,07,12,12.90
2006,07,30,07,13,12.90
2006,07,30,07,14,12.80
2006,07,30,07,15,12.80
2006,07,30,07,16,12.80
2006,07,30,07,17,12.80
2006,07,30,07,18,12.80
2006,07,30,07,19,12.80
2006,07,30,07,20,12.80
2006,07,30,07,21,12.80
2006,07,30,07,22,12.80
2006,07,30,07,23,12.80
2006,07,30,07,24,12.80
2006,07,30,07,25,12.80
2006,07,30,07,26,12.70
2006,07,30,07,27,12.70
2006,07,30,07,28,12.70
2006,07,30,07,29,12.70
2006,07,30,07,30,12.70
2006,07,30,07,31,12.70
2006,07,30,07,32,12.70
2006,07,30,07,33,12.70
2006,07,30,07,34,12.70
2006,07,30,07,35,12.70
2006,07,30,07,36,12.70
2006,07,30,07,37,12.70
2006,07,30,07,38,12.70
2006,07,30,07,39,12.70
2006,07,30,07,40,12.70
2006,07,30,07,41,12.60
2006,07,30,07,42,12.60
2006,07,30,07,43,12.60
2006,07,30,07,44,12.60
2006,07,30,07,45,12.60
2006,07,30,07,46,12.60
2006,07,30,07,47,12.60
2006,07,30,07,48,12.60
2006,07,30,07,49,12.60
2006,07,30,07,50,12.50
2006,07,30,07,51,12.50
2006,07,30,07,52,12.50
2006,07,30,07,53,12.40
2006,07,30,07,54,12.40
2006,07,30,07,55,12.40
2006,07,30,07,56,12.40
2006,07,30,07,57,12.40
2006,07,30,07,58,12.40
2006,07,30,07,59,12.40
2006,07,30,08,00,12.40
2006,07,30,08,01,12.40
2006,07,30,08,02,12.40
2006,07,30,08,03,12.40
2006,07,30,08,04,12.40
2006,07,30,08,05,12.40
2006,07,30,08,06,12.40
2006,07,30,08,07,12.40
2006,07,30,08,08,12.40
2006,07,30,08,09,12.40
2006,07,30,08,10,12.40
2006,07,30,08,11,12.40
2006,07,30,08,12,12.40
2006,07,30,08,13,12.40
2006,07,30,08,14,12.40
2006,07,30,08,15,12.40
2006,07,30,08,16,12.40
2006,07,30,08,17,12.40
2006,07,30,08,18,12.40
2006,07,30,08,19,12.40
2006,07,30,08,20,12.40
2006,07,30,08,21,12.40
2006,07,30,08,22,12.40
2006,07,30,08,23,12.40
2006,07,30,08,24,12.50
2006,07,30,08,25,12.50
2006,07,30,08,26,12.50
2006,07,30,08,27,12.50
2006,07,30,08,28,12.50
2006,07,30,08,29,12.50
2006,07,30,08,30,12.50
2006,07,30,08,31,12.50
2006,07,30,08,32,12.50
2006,07,30,08,33,12.60
2006,07,30,08,34,12.60
2006,07,30,08,35,12.50
2006,07,30,08,36,12.60
2006,07,30,08,37,12.60
2006,07,30,08,38,12.60
2006,07,30,08,39,12.60
2006,07,30,08,40,12.70
2006,07,30,08,41,12.70
2006,07,30,08,42,12.70
2006,07,30,08,43,12.80
2006,07,30,08,44,12.80
2006,07,30,08,45,12.80
2006,07,30,08,46,12.80
2006,07,30,08,47,12.80
2006,07,30,08,48,12.80
2006,07,30,08,49,12.90
2006,07,30,08,50,12.90
2006,07,30,08,51,12.90
2006,07,30,08,52,12.90
2006,07,30,08,53,12.90
2006,07,30,08,54,12.90
2006,07,30,08,55,12.90
2006,07,30,08,56,12.90
2006,07,30,08,57,12.90
2006,07,30,08,58,12.90
2006,07,30,08,59,12.90
2006,07,30,09,00,12.90
2006,07,30,09,01,12.90
2006,07,30,09,02,12.90
2006,07,30,09,03,12.90
2006,07,30,09,04,12.90
2006,07,30,09,05,12.90
2006,07,30,09,06,12.90
2006,07,30,09,07,12.90
2006,07,30,09,08,13.00
2006,07,30,09,09,13.00
2006,07,30,09,10,13.00
2006,07,30,09,11,13.00
2006,07,30,09,12,13.00
2006,07,30,09,13,13.00
2006,07,30,09,14,13.10
2006,07,30,09,15,13.10
2006,07,30,09,16,13.10
2006,07,30,09,17,13.10
2006,07,30,09,18,13.10
2006,07,30,09,19,13.10
2006,07,30,09,20,13.10
2006,07,30,09,21,13.20
2006,07,30,09,22,13.20
2006,07,30,09,23,13.20
2006,07,30,09,24,13.20
2006,07,30,09,25,13.30
2006,07,30,09,26,13.30
2006,07,30,09,27,13.30
2006,07,30,09,28,13.30
2006,07,30,09,29,13.30
2006,07,30,09,30,13.40
2006,07,30,09,31,13.40
2006,07,30,09,32,13.40
2006,07,30,09,33,13.50
2006,07,30,09,34,13.50
2006,07,30,09,35,13.50
2006,07,30,09,36,13.50
2006,07,30,09,37,13.60
2006,07,30,09,38,13.60
2006,07,30,09,39,13.60
2006,07,30,09,40,13.60
2006,07,30,09,41,13.60
2006,07,30,09,42,13.70
2006,07,30,09,43,13.70
2006,07,30,09,44,13.70
2006,07,30,09,45,13.70
2006,07,30,09,46,13.70
2006,07,30,09,47,13.70
2006,07,30,09,48,13.70
2006,07,30,09,49,13.80
2006,07,30,09,50,13.80
2006,07,30,09,51,13.80
2006,07,30,09,52,13.80
2006,07,30,09,53,13.90
2006,07,30,09,54,13.90
2006,07,30,09,55,13.90
2006,07,30,09,56,14.00
2006,07,30,09,57,14.00
2006,07,30,09,58,14.00
2006,07,30,09,59,14.10
2006,07,30,10,00,14.10
2006,07,30,10,01,14.20
2006,07,30,10,02,14.20
2006,07,30,10,03,14.20
2006,07,30,10,04,14.20
2006,07,30,10,05,14.20
2006,07,30,10,06,14.20
2006,07,30,10,07,14.20
2006,07,30,10,08,14.20
2006,07,30,10,09,14.20
2006,07,30,10,10,14.20
2006,07,30,10,11,14.20
2006,07,30,10,12,14.20
2006,07,30,10,13,14.30
2006,07,30,10,14,14.30
2006,07,30,10,15,14.40
2006,07,30,10,16,14.40
2006,07,30,10,17,14.50
2006,07,30,10,18,14.50
2006,07,30,10,19,14.60
2006,07,30,10,20,14.60
2006,07,30,10,21,14.60
2006,07,30,10,22,14.60
2006,07,30,10,23,14.60
2006,07,30,10,24,14.70
2006,07,30,10,25,14.70
2006,07,30,10,26,14.70
2006,07,30,10,27,14.70
2006,07,30,10,28,14.80
2006,07,30,10,29,14.80
2006,07,30,10,30,14.80
2006,07,30,10,31,14.80
2006,07,30,10,32,14.80
2006,07,30,10,33,14.90
2006,07,30,10,34,14.90
2006,07,30,10,35,14.90
2006,07,30,10,36,15.00
2006,07,30,10,37,15.00
2006,07,30,10,38,15.10
2006,07,30,10,39,15.10
2006,07,30,10,40,15.10
2006,07,30,10,41,15.20
2006,07,30,10,42,15.20
2006,07,30,10,43,15.30
2006,07,30,10,44,15.30
2006,07,30,10,45,15.30
2006,07,30,10,46,15.30
2006,07,30,10,47,15.40
2006,07,30,10,48,15.40
2006,07,30,10,49,15.50
2006,07,30,10,50,15.50
2006,07,30,10,51,15.50
2006,07,30,10,52,15.50
2006,07,30,10,53,15.50
2006,07,30,10,54,15.50
2006,07,30,10,55,15.60
2006,07,30,10,56,15.60
2006,07,30,10,57,15.60
2006,07,30,10,58,15.60
2006,07,30,10,59,15.50
2006,07,30,11,00,15.50
2006,07,30,11,01,15.50
2006,07,30,11,02,15.50
2006,07,30,11,03,15.50
2006,07,30,11,04,15.50
2006,07,30,11,05,15.50
2006,07,30,11,06,15.50
2006,07,30,11,07,15.60
2006,07,30,11,08,15.60
2006,07,30,11,09,15.70
2006,07,30,11,10,15.70
2006,07,30,11,11,15.70
2006,07,30,11,12,15.80
2006,07,30,11,13,15.80
2006,07,30,11,14,16.00
2006,07,30,11,15,16.10
2006,07,30,11,16,16.10
2006,07,30,11,17,16.10
2006,07,30,11,18,16.20
2006,07,30,11,19,16.20
2006,07,30,11,20,16.20
2006,07,30,11,21,16.20
2006,07,30,11,22,16.20
2006,07,30,11,23,16.20
2006,07,30,11,24,16.20
2006,07,30,11,25,16.20
2006,07,30,11,26,16.30
2006,07,30,11,27,16.30
2006,07,30,11,28,16.30
2006,07,30,11,29,16.40
2006,07,30,11,30,16.60
2006,07,30,11,31,16.70
2006,07,30,11,32,16.70
2006,07,30,11,33,16.80
2006,07,30,11,34,16.80
2006,07,30,11,35,16.70
2006,07,30,11,36,16.70
2006,07,30,11,37,16.70
2006,07,30,11,38,16.70
2006,07,30,11,39,16.70
2006,07,30,11,40,16.70
2006,07,30,11,41,16.80
2006,07,30,11,42,16.80
2006,07,30,11,43,16.90
2006,07,30,11,44,17.00
2006,07,30,11,45,17.00
2006,07,30,11,46,17.00
2006,07,30,11,47,17.00
2006,07,30,11,48,16.90
2006,07,30,11,49,16.90
2006,07,30,11,50,16.80
2006,07,30,11,51,16.80
2006,07,30,11,52,16.80
2006,07,30,11,53,16.90
2006,07,30,11,54,16.90
2006,07,30,11,55,17.00
2006,07,30,11,56,17.10
2006,07,30,11,57,17.20
2006,07,30,11,58,17.20
2006,07,30,11,59,17.20
2006,07,30,12,00,17.20
2006,07,30,12,01,17.20
2006,07,30,12,02,17.20
2006,07,30,12,03,17.20
2006,07,30,12,04,17.20
2006,07,30,12,05,17.30
2006,07,30,12,06,17.40
2006,07,30,12,07,17.50
2006,07,30,12,08,17.60
2006,07,30,12,09,17.50
2006,07,30,12,10,17.50
2006,07,30,12,11,17.40
2006,07,30,12,12,17.40
2006,07,30,12,13,17.40
2006,07,30,12,14,17.40
2006,07,30,12,15,17.40
2006,07,30,12,16,17.30
2006,07,30,12,17,17.30
2006,07,30,12,18,17.30
2006,07,30,12,19,17.30
2006,07,30,12,20,17.20
2006,07,30,12,21,17.20
2006,07,30,12,22,17.20
2006,07,30,12,23,17.20
2006,07,30,12,24,17.20
2006,07,30,12,25,17.20
2006,07,30,12,26,17.20
2006,07,30,12,27,17.20
2006,07,30,12,28,17.20
2006,07,30,12,29,17.20
2006,07,30,12,30,17.30
2006,07,30,12,31,17.30
2006,07,30,12,32,17.30
2006,07,30,12,33,17.40
2006,07,30,12,34,17.50
2006,07,30,12,35,17.50
2006,07,30,12,36,17.60
2006,07,30,12,37,17.60
2006,07,30,12,38,17.70
2006,07,30,12,39,17.70
2006,07,30,12,40,17.80
2006,07,30,12,41,17.80
2006,07,30,12,42,17.80
2006,07,30,12,43,17.90
2006,07,30,12,44,17.90
2006,07,30,12,45,18.00
2006,07,30,12,46,18.10
2006,07,30,12,47,18.20
2006,07,30,12,48,18.20
2006,07,30,12,49,18.20
2006,07,30,12,50,18.20
2006,07,30,12,51,18.20
2006,07,30,12,52,18.20
2006,07,30,12,53,18.10
2006,07,30,12,54,18.10
2006,07,30,12,55,18.10
2006,07,30,12,56,18.10
2006,07,30,12,57,18.10
2006,07,30,12,58,18.10
2006,07,30,12,59,18.20
2006,07,30,13,00,18.30
2006,07,30,13,01,18.40
2006,07,30,13,02,18.50
2006,07,30,13,03,18.50
2006,07,30,13,04,18.50
2006,07,30,13,05,18.50
2006,07,30,13,06,18.50
2006,07,30,13,07,18.40
2006,07,30,13,08,18.40
2006,07,30,13,09,18.30
2006,07,30,13,10,18.30
2006,07,30,13,11,18.30
2006,07,30,13,12,18.30
2006,07,30,13,13,18.40
2006,07,30,13,14,18.40
2006,07,30,13,15,18.40
2006,07,30,13,16,18.30
2006,07,30,13,17,18.30
2006,07,30,13,18,18.20
2006,07,30,13,19,18.20
2006,07,30,13,20,18.20
2006,07,30,13,21,18.20
2006,07,30,13,22,18.10
2006,07,30,13,23,18.10
2006,07,30,13,24,18.10
2006,07,30,13,25,18.10
2006,07,30,13,26,18.20
2006,07,30,13,27,18.20
2006,07,30,13,28,18.20
2006,07,30,13,29,18.20
2006,07,30,13,30,18.20
2006,07,30,13,31,18.20
2006,07,30,13,32,18.40
2006,07,30,13,33,18.50
2006,07,30,13,34,18.60
2006,07,30,13,35,18.60
2006,07,30,13,36,18.70
2006,07,30,13,37,18.80
2006,07,30,13,38,18.90
2006,07,30,13,39,18.90
2006,07,30,13,40,18.90
2006,07,30,13,41,19.00
2006,07,30,13,42,19.10
2006,07,30,13,43,19.10
2006,07,30,13,44,19.10
2006,07,30,13,45,19.10
2006,07,30,13,46,19.10
2006,07,30,13,47,19.10
2006,07,30,13,48,19.10
2006,07,30,13,49,19.10
2006,07,30,13,50,19.10
2006,07,30,13,51,19.10
2006,07,30,13,52,19.10
2006,07,30,13,53,19.10
2006,07,30,13,54,19.10
2006,07,30,13,55,19.30
2006,07,30,13,56,19.40
2006,07,30,13,57,19.50
2006,07,30,13,58,19.60
2006,07,30,13,59,19.60
2006,07,30,14,00,19.70
2006,07,30,14,01,19.70
2006,07,30,14,02,19.80
2006,07,30,14,03,19.70
2006,07,30,14,04,19.60
2006,07,30,14,05,19.60
2006,07,30,14,06,19.60
2006,07,30,14,07,19.60
2006,07,30,14,08,19.60
2006,07,30,14,09,19.70
2006,07,30,14,10,19.60
2006,07,30,14,11,19.50
2006,07,30,14,12,19.50
2006,07,30,14,13,19.50
2006,07,30,14,14,19.50
2006,07,30,14,15,19.50
2006,07,30,14,16,19.60
2006,07,30,14,17,19.50
2006,07,30,14,18,19.40
2006,07,30,14,19,19.20
2006,07,30,14,20,19.20
2006,07,30,14,21,19.30
2006,07,30,14,22,19.30
2006,07,30,14,23,19.30
2006,07,30,14,24,19.20
2006,07,30,14,25,19.20
2006,07,30,14,26,19.20
2006,07,30,14,27,19.10
2006,07,30,14,28,19.20
2006,07,30,14,29,19.30
2006,07,30,14,30,19.40
2006,07,30,14,31,19.50
2006,07,30,14,32,19.50
2006,07,30,14,33,19.40
2006,07,30,14,34,19.30
2006,07,30,14,35,19.20
2006,07,30,14,36,19.10
2006,07,30,14,37,19.20
2006,07,30,14,38,19.30
2006,07,30,14,39,19.30
2006,07,30,14,40,19.40
2006,07,30,14,41,19.40
2006,07,30,14,42,19.50
2006,07,30,14,43,19.50
2006,07,30,14,44,19.50
2006,07,30,14,45,19.50
2006,07,30,14,46,19.60
2006,07,30,14,47,19.60
2006,07,30,14,48,19.60
2006,07,30,14,49,19.60
2006,07,30,14,50,19.50
2006,07,30,14,51,19.50
2006,07,30,14,52,19.50
2006,07,30,14,53,19.50
2006,07,30,14,54,19.30
2006,07,30,14,55,19.10
2006,07,30,14,56,19.10
2006,07,30,14,57,19.10
2006,07,30,14,58,19.10
2006,07,30,14,59,19.10
2006,07,30,15,00,19.10
2006,07,30,15,01,19.20
2006,07,30,15,02,19.20
2006,07,30,15,03,19.30
2006,07,30,15,04,19.30
2006,07,30,15,05,19.30
2006,07,30,15,06,19.40
2006,07,30,15,07,19.40
2006,07,30,15,08,19.50
2006,07,30,15,09,19.50
2006,07,30,15,10,19.50
2006,07,30,15,11,19.60
2006,07,30,15,12,19.60
2006,07,30,15,13,19.50
2006,07,30,15,14,19.50
2006,07,30,15,15,19.60
2006,07,30,15,16,19.60
2006,07,30,15,17,19.50
2006,07,30,15,18,19.60
2006,07,30,15,19,19.70
2006,07,30,15,20,19.80
2006,07,30,15,21,19.80
2006,07,30,15,22,19.70
2006,07,30,15,23,19.70
2006,07,30,15,24,19.70
2006,07,30,15,25,19.80
2006,07,30,15,26,19.80
2006,07,30,15,27,19.90
2006,07,30,15,28,19.90
2006,07,30,15,29,19.90
2006,07,30,15,30,19.90
2006,07,30,15,31,19.80
2006,07,30,15,32,19.70
2006,07,30,15,33,19.70
2006,07,30,15,34,19.70
2006,07,30,15,35,19.80
2006,07,30,15,36,19.80
2006,07,30,15,37,19.80
2006,07,30,15,38,19.80
2006,07,30,15,39,19.90
2006,07,30,15,40,19.90
2006,07,30,15,41,19.90
2006,07,30,15,42,19.90
2006,07,30,15,43,19.90
2006,07,30,15,44,19.90
2006,07,30,15,45,20.00
2006,07,30,15,46,20.10
2006,07,30,15,47,20.10
2006,07,30,15,48,20.00
2006,07,30,15,49,19.90
2006,07,30,15,50,19.90
2006,07,30,15,51,19.90
2006,07,30,15,52,19.90
2006,07,30,15,53,19.90
2006,07,30,15,54,19.90
2006,07,30,15,55,19.70
2006,07,30,15,56,19.80
2006,07,30,15,57,19.80
2006,07,30,15,58,19.90
2006,07,30,15,59,19.90
2006,07,30,16,00,20.00
2006,07,30,16,01,20.10
2006,07,30,16,02,20.20
2006,07,30,16,03,20.20
2006,07,30,16,04,20.20
2006,07,30,16,05,20.20
2006,07,30,16,06,20.20
2006,07,30,16,07,20.20
2006,07,30,16,08,20.20
2006,07,30,16,09,20.20
2006,07,30,16,10,20.20
2006,07,30,16,11,20.20
2006,07,30,16,12,20.10
2006,07,30,16,13,20.00
2006,07,30,16,14,19.90
2006,07,30,16,15,19.90
2006,07,30,16,16,19.90
2006,07,30,16,17,19.90
2006,07,30,16,18,20.00
2006,07,30,16,19,20.00
2006,07,30,16,20,19.90
2006,07,30,16,21,19.80
2006,07,30,16,22,19.80
2006,07,30,16,23,19.80
2006,07,30,16,24,19.80
2006,07,30,16,25,19.90
2006,07,30,16,26,19.90
2006,07,30,16,27,19.80
2006,07,30,16,28,19.80
2006,07,30,16,29,19.80
2006,07,30,16,30,19.80
2006,07,30,16,31,19.90
2006,07,30,16,32,20.00
2006,07,30,16,33,20.10
2006,07,30,16,34,20.10
2006,07,30,16,35,20.20
2006,07,30,16,36,20.20
2006,07,30,16,37,20.20
2006,07,30,16,38,20.10
2006,07,30,16,39,20.10
2006,07,30,16,40,20.10
2006,07,30,16,41,20.10
2006,07,30,16,42,20.10
2006,07,30,16,43,20.10
2006,07,30,16,44,20.00
2006,07,30,16,45,19.90
2006,07,30,16,46,19.90
2006,07,30,16,47,19.90
2006,07,30,16,48,19.90
2006,07,30,16,49,19.90
2006,07,30,16,50,19.90
2006,07,30,16,51,19.90
2006,07,30,16,52,19.90
2006,07,30,16,53,19.90
2006,07,30,16,54,20.00
2006,07,30,16,55,20.10
2006,07,30,16,56,20.20
2006,07,30,16,57,20.20
2006,07,30,16,58,20.40
2006,07,30,16,59,20.50
2006,07,30,17,00,20.50
2006,07,30,17,01,20.40
2006,07,30,17,02,20.30
2006,07,30,17,03,20.20
2006,07,30,17,04,20.20
2006,07,30,17,05,20.20
2006,07,30,17,06,20.20
2006,07,30,17,07,20.20
2006,07,30,17,08,20.20
2006,07,30,17,09,20.20
2006,07,30,17,10,20.20
2006,07,30,17,11,20.20
2006,07,30,17,12,20.20
2006,07,30,17,13,20.20
2006,07,30,17,14,20.20
2006,07,30,17,15,20.10
2006,07,30,17,16,20.10
2006,07,30,17,17,20.10
2006,07,30,17,18,20.10
2006,07,30,17,19,20.10